| time (UTC) | temp F | wind direction | speed MPH | gust MPH | rain 1hr in | rain 24hr in | rain mn in | humidity % | barometer mb |
| 20260505224516 | 50 | 270 | 9.0 | 16.0 | 0.00 | 0.00 | 0.00 | 38 | 1009.3 |
| 20260505223515 | 50 | 315 | 8.0 | 17.0 | 0.00 | 0.00 | 0.00 | 39 | 1009.3 |
| 20260505222515 | 50 | 293 | 8.0 | 16.0 | 0.00 | 0.00 | 0.00 | 37 | 1009.0 |
| 20260505221515 | 50 | 293 | 6.0 | 12.0 | 0.00 | 0.00 | 0.00 | 38 | 1009.2 |
| 20260505220515 | 51 | 293 | 9.0 | 15.0 | 0.00 | 0.00 | 0.00 | 36 | 1009.0 |
| 20260505215536 | 51 | 270 | 7.0 | 15.0 | 0.00 | 0.00 | 0.00 | 38 | 1009.1 |
| 20260505214515 | 50 | 315 | 9.0 | 17.0 | 0.00 | 0.00 | 0.00 | 39 | 1009.0 |
| 20260505213516 | 50 | 270 | 9.0 | 19.0 | 0.00 | 0.00 | 0.00 | 40 | 1009.1 |
| 20260505212516 | 51 | 270 | 9.0 | 17.0 | 0.00 | 0.00 | 0.00 | 37 | 1009.1 |
| 20260505211535 | 53 | 270 | 10.0 | 20.0 | 0.00 | 0.00 | 0.00 | 36 | 1009.2 |
| 20260505210515 | 52 | 270 | 8.0 | 16.0 | 0.00 | 0.00 | 0.00 | 39 | 1009.1 |
| 20260505205515 | 51 | 270 | 6.0 | 13.0 | 0.00 | 0.00 | 0.00 | 38 | 1009.1 |
| 20260505204515 | 51 | 293 | 9.0 | 16.0 | 0.00 | 0.00 | 0.00 | 38 | 1009.3 |
| 20260505203515 | 51 | 293 | 8.0 | 16.0 | 0.00 | 0.00 | 0.00 | 40 | 1009.5 |
| 20260505202516 | 50 | 293 | 10.0 | 17.0 | 0.00 | 0.00 | 0.00 | 39 | 1009.4 |
| 20260505201515 | 50 | 293 | 11.0 | 19.0 | 0.00 | 0.00 | 0.00 | 38 | 1009.3 |
| 20260505200515 | 50 | 293 | 10.0 | 18.0 | 0.00 | 0.00 | 0.00 | 39 | 1009.5 |
| 20260505195537 | 51 | 270 | 9.0 | 18.0 | 0.00 | 0.00 | 0.00 | 40 | 1009.5 |
| 20260505194515 | 50 | 293 | 8.0 | 15.0 | 0.00 | 0.00 | 0.00 | 40 | 1009.5 |
| 20260505193515 | 52 | 270 | 11.0 | 26.0 | 0.00 | 0.00 | 0.00 | 37 | 1009.7 |
| 20260505192516 | 51 | 270 | 9.0 | 16.0 | 0.00 | 0.00 | 0.00 | 38 | 1009.4 |
| 20260505191515 | 49 | 270 | 8.0 | 16.0 | 0.00 | 0.00 | 0.00 | 41 | 1009.5 |
| 20260505190515 | 50 | 248 | 8.0 | 17.0 | 0.00 | 0.00 | 0.00 | 37 | 1009.5 |
| 20260505185537 | 51 | 270 | 10.0 | 19.0 | 0.00 | 0.00 | 0.00 | 38 | 1009.6 |
| 20260505184515 | 51 | 270 | 8.0 | 14.0 | 0.00 | 0.00 | 0.00 | 35 | 1009.6 |
| 20260505183515 | 51 | 270 | 11.0 | 21.0 | 0.00 | 0.00 | 0.00 | 34 | 1009.5 |
| 20260505182515 | 51 | 293 | 9.0 | 17.0 | 0.00 | 0.00 | 0.00 | 37 | 1009.4 |
| 20260505181515 | 50 | 293 | 11.0 | 20.0 | 0.00 | 0.00 | 0.00 | 35 | 1009.2 |
| 20260505180515 | 52 | 293 | 10.0 | 22.0 | 0.00 | 0.00 | 0.00 | 36 | 1009.3 |
| 20260505175517 | 51 | 293 | 9.0 | 19.0 | 0.00 | 0.00 | 0.00 | 37 | 1009.1 |
| 20260505174517 | 51 | 315 | 9.0 | 15.0 | 0.00 | 0.00 | 0.00 | 38 | 1009.2 |
| 20260505173517 | 50 | 270 | 9.0 | 15.0 | 0.00 | 0.00 | 0.00 | 36 | 1009.3 |
| 20260505172517 | 50 | 270 | 12.0 | 20.0 | 0.00 | 0.00 | 0.00 | 38 | 1009.2 |
| 20260505171517 | 49 | 270 | 8.0 | 20.0 | 0.00 | 0.00 | 0.00 | 40 | 1009.3 |
| 20260505170517 | 49 | 248 | 10.0 | 18.0 | 0.00 | 0.00 | 0.00 | 38 | 1009.3 |
| 20260505165517 | 49 | 270 | 8.0 | 19.0 | 0.00 | 0.00 | 0.00 | 38 | 1009.2 |
| 20260505164517 | 48 | 248 | 9.0 | 16.0 | 0.00 | 0.00 | 0.00 | 38 | 1009.4 |
| 20260505163517 | 49 | 270 | 8.0 | 19.0 | 0.00 | 0.00 | 0.00 | 40 | 1009.5 |
| 20260505162517 | 49 | 315 | 7.0 | 14.0 | 0.00 | 0.00 | 0.00 | 40 | 1009.3 |
| 20260505161517 | 49 | 315 | 9.0 | 16.0 | 0.00 | 0.00 | 0.00 | 40 | 1009.3 |
| 20260505160517 | 48 | 270 | 8.0 | 17.0 | 0.00 | 0.00 | 0.00 | 37 | 1009.1 |
| 20260505152537 | 49 | 270 | 6.0 | 14.0 | 0.00 | 0.00 | 0.00 | 40 | 1009.0 |
| 20260505151517 | 47 | 315 | 6.0 | 11.0 | 0.00 | 0.00 | 0.00 | 41 | 1008.9 |
| 20260505150517 | 48 | 338 | 7.0 | 17.0 | 0.00 | 0.00 | 0.00 | 43 | 1008.9 |
| 20260505140517 | 46 | 293 | 6.0 | 11.0 | 0.00 | 0.00 | 0.00 | 49 | 1008.9 |
| 20260505124517 | 43 | 293 | 5.0 | 9.0 | 0.00 | 0.00 | 0.00 | 58 | 1008.6 |
| 20260505123517 | 42 | 270 | 5.0 | 9.0 | 0.00 | 0.00 | 0.00 | 58 | 1008.5 |
| 20260505122517 | 42 | 270 | 5.0 | 10.0 | 0.00 | 0.00 | 0.00 | 59 | 1008.5 |
| 20260505121537 | 41 | 270 | 4.0 | 9.0 | 0.00 | 0.00 | 0.00 | 61 | 1008.2 |
| 20260505120516 | 41 | 270 | 4.0 | 8.0 | 0.00 | 0.00 | 0.00 | 60 | 1008.1 |
| 20260505115517 | 40 | 270 | 4.0 | 9.0 | 0.00 | 0.00 | 0.00 | 61 | 1007.7 |
| 20260505114517 | 40 | 270 | 3.0 | 7.0 | 0.00 | 0.00 | 0.00 | 61 | 1007.4 |
| 20260505113517 | 39 | 293 | 3.0 | 4.0 | 0.00 | 0.00 | 0.00 | 63 | 1007.0 |
| 20260505112517 | 39 | 293 | 2.0 | 3.0 | 0.00 | 0.00 | 0.00 | 62 | 1006.7 |
| 20260505111517 | 39 | 293 | 3.0 | 6.0 | 0.00 | 0.00 | 0.00 | 63 | 1006.7 |
| 20260505110517 | 39 | 293 | 4.0 | 8.0 | 0.00 | 0.00 | 0.00 | 62 | 1006.8 |
| 20260505101536 | 40 | 270 | 2.0 | 4.0 | 0.00 | 0.00 | 0.00 | 61 | 1006.8 |
| 20260505100536 | 41 | 248 | 3.0 | 7.0 | 0.00 | 0.00 | 0.00 | 59 | 1006.8 |
| 20260505095517 | 41 | 248 | 2.0 | 6.0 | 0.00 | 0.00 | 0.00 | 59 | 1006.8 |
| 20260505094516 | 41 | 270 | 2.0 | 4.0 | 0.00 | 0.00 | 0.00 | 58 | 1006.7 |
| 20260505093536 | 41 | 248 | 3.0 | 6.0 | 0.00 | 0.00 | 0.00 | 58 | 1006.7 |
| 20260505092516 | 42 | 270 | 3.0 | 8.0 | 0.00 | 0.00 | 0.00 | 57 | 1006.6 |
| 20260505091516 | 42 | 270 | 3.0 | 7.0 | 0.00 | 0.00 | 0.00 | 57 | 1006.4 |
| 20260505090516 | 42 | 270 | 3.0 | 7.0 | 0.00 | 0.00 | 0.00 | 57 | 1006.2 |
| 20260505085516 | 42 | 270 | 3.0 | 8.0 | 0.00 | 0.00 | 0.00 | 60 | 1006.1 |
| 20260505084557 | 43 | 270 | 4.0 | 8.0 | 0.00 | 0.00 | 0.00 | 54 | 1006.0 |
| 20260505083516 | 42 | 248 | 3.0 | 6.0 | 0.00 | 0.00 | 0.00 | 54 | 1005.9 |
| 20260505082516 | 42 | 270 | 2.0 | 4.0 | 0.00 | 0.00 | 0.00 | 56 | 1005.9 |
| 20260505081516 | 43 | 270 | 3.0 | 4.0 | 0.00 | 0.00 | 0.00 | 57 | 1005.7 |
| 20260505080516 | 43 | 293 | 3.0 | 6.0 | 0.00 | 0.00 | 0.00 | 53 | 1005.3 |
| 20260505075516 | 43 | 293 | 3.0 | 5.0 | 0.00 | 0.00 | 0.00 | 52 | 1005.3 |
| 20260505074516 | 44 | 315 | 5.0 | 9.0 | 0.00 | 0.00 | 0.00 | 51 | 1005.1 |
| 20260505073516 | 44 | 315 | 4.0 | 9.0 | 0.00 | 0.00 | 0.00 | 50 | 1005.1 |
| 20260505072516 | 44 | 293 | 4.0 | 9.0 | 0.00 | 0.00 | 0.00 | 50 | 1005.2 |
| 20260505071516 | 45 | 315 | 4.0 | 8.0 | 0.00 | 0.00 | 0.00 | 49 | 1005.4 |
| 20260505070536 | 45 | 315 | 7.0 | 15.0 | 0.00 | 0.00 | 0.00 | 48 | 1005.4 |
| 20260505065516 | 45 | 315 | 7.0 | 13.0 | 0.00 | 0.00 | 0.00 | 49 | 1005.4 |
| 20260505064536 | 45 | 315 | 6.0 | 12.0 | 0.00 | 0.00 | 0.00 | 49 | 1005.6 |
| 20260505063516 | 46 | 293 | 6.0 | 11.0 | 0.00 | 0.00 | 0.00 | 49 | 1005.7 |
| 20260505062516 | 46 | 315 | 6.0 | 13.0 | 0.00 | 0.00 | 0.00 | 49 | 1005.6 |
| 20260505061536 | 46 | 315 | 8.0 | 16.0 | 0.00 | 0.00 | 0.00 | 49 | 1005.6 |
| 20260505060536 | 46 | 315 | 6.0 | 13.0 | 0.00 | 0.00 | 0.00 | 50 | 1005.6 |
| 20260505055516 | 47 | 315 | 8.0 | 16.0 | 0.00 | 0.00 | 0.00 | 49 | 1005.6 |
| 20260505054516 | 48 | 338 | 6.0 | 11.0 | 0.00 | 0.00 | 0.00 | 50 | 1005.5 |
| 20260505053536 | 48 | 315 | 7.0 | 14.0 | 0.00 | 0.00 | 0.00 | 49 | 1005.3 |
| 20260505052516 | 49 | 315 | 8.0 | 17.0 | 0.00 | 0.00 | 0.00 | 48 | 1005.2 |
| 20260505051516 | 49 | 293 | 8.0 | 17.0 | 0.00 | 0.00 | 0.00 | 48 | 1005.2 |
| 20260505050516 | 49 | 338 | 10.0 | 21.0 | 0.00 | 0.00 | 0.00 | 48 | 1005.1 |
| 20260505041517 | 51 | 315 | 8.0 | 19.0 | 0.00 | 0.00 | 0.00 | 49 | 1004.3 |
| 20260505040517 | 51 | 315 | 12.0 | 18.0 | 0.00 | 0.00 | 0.00 | 48 | 1004.1 |
| 20260505035537 | 52 | 293 | 6.0 | 12.0 | 0.00 | 0.00 | 0.00 | 48 | 1004.0 |
| 20260505034517 | 52 | 293 | 6.0 | 12.0 | 0.00 | 0.00 | 0.00 | 47 | 1003.9 |
| 20260505033517 | 52 | 315 | 8.0 | 20.0 | 0.00 | 0.00 | 0.00 | 46 | 1003.6 |
| 20260505032517 | 53 | 293 | 8.0 | 15.0 | 0.00 | 0.00 | 0.00 | 46 | 1003.6 |
| 20260505031517 | 53 | 270 | 11.0 | 20.0 | 0.00 | 0.00 | 0.00 | 45 | 1003.3 |
| 20260505030517 | 54 | 293 | 10.0 | 21.0 | 0.00 | 0.00 | 0.00 | 44 | 1003.1 |
| 20260505025517 | 54 | 293 | 9.0 | 16.0 | 0.00 | 0.00 | 0.00 | 44 | 1002.9 |
| 20260505024517 | 55 | 293 | 10.0 | 18.0 | 0.00 | 0.00 | 0.00 | 44 | 1002.7 |
| 20260505023518 | 55 | 293 | 7.0 | 12.0 | 0.00 | 0.00 | 0.00 | 44 | 1002.4 |
| 20260505022517 | 55 | 293 | 11.0 | 18.0 | 0.00 | 0.00 | 0.00 | 43 | 1002.2 |
| 20260505020537 | 56 | 293 | 7.0 | 16.0 | 0.00 | 0.00 | 0.00 | 42 | 1001.5 |
| 20260505015517 | 56 | 270 | 8.0 | 15.0 | 0.00 | 0.00 | 0.00 | 42 | 1001.2 |
| 20260505014516 | 56 | 293 | 9.0 | 16.0 | 0.00 | 0.00 | 0.00 | 41 | 1000.9 |
| 20260505013517 | 57 | 270 | 6.0 | 11.0 | 0.00 | 0.00 | 0.00 | 41 | 1000.8 |
| 20260505012517 | 57 | 293 | 6.0 | 13.0 | 0.00 | 0.00 | 0.00 | 40 | 1000.5 |
| 20260505011517 | 58 | 315 | 7.0 | 14.0 | 0.00 | 0.00 | 0.00 | 40 | 1000.2 |
| 20260505010516 | 58 | 293 | 9.0 | 15.0 | 0.00 | 0.00 | 0.00 | 39 | 1000.4 |
| 20260505005537 | 58 | 293 | 7.0 | 21.0 | 0.00 | 0.00 | 0.00 | 38 | 1000.4 |
| 20260505004516 | 59 | 270 | 7.0 | 16.0 | 0.00 | 0.00 | 0.00 | 37 | 1000.5 |
| 20260505003536 | 59 | 293 | 10.0 | 16.0 | 0.00 | 0.00 | 0.00 | 34 | 1000.4 |
| 20260505002516 | 60 | 270 | 9.0 | 18.0 | 0.00 | 0.00 | 0.00 | 34 | 1000.0 |
| 20260505001536 | 60 | 270 | 9.0 | 20.0 | 0.00 | 0.00 | 0.00 | 34 | 999.9 |
| 20260505000517 | 61 | 270 | 8.0 | 17.0 | 0.00 | 0.00 | 0.00 | 33 | 999.8 |
| 20260504235557 | 61 | 248 | 11.0 | 20.0 | 0.00 | 0.00 | 0.00 | 33 | 999.6 |
| 20260504234516 | 62 | 270 | 9.0 | 24.0 | 0.00 | 0.00 | 0.00 | 32 | 999.6 |
| 20260504233516 | 62 | 270 | 11.0 | 19.0 | 0.00 | 0.00 | 0.00 | 32 | 999.5 |
| 20260504232536 | 62 | 248 | 11.0 | 26.0 | 0.00 | 0.00 | 0.00 | 34 | 999.3 |
| 20260504231558 | 63 | 270 | 8.0 | 15.0 | 0.00 | 0.00 | 0.00 | 34 | 999.4 |
| 20260504230516 | 63 | 270 | 8.0 | 17.0 | 0.00 | 0.00 | 0.00 | 35 | 999.3 |
| 20260504225516 | 63 | 270 | 9.0 | 18.0 | 0.00 | 0.00 | 0.00 | 34 | 999.2 |